Wind_Speed
17 18 18 19 20 20 20 20 20 19 19 19 19 18 19 19 19 19 18 17 16 15 14 14 14 14 14 13 11 8 5 2 5 6 4 0 4 9 12 13 16 18 17 14 13 17 22 24 25 25 24 24 27 31 37 41 42 41 39 37 37 39 41 41 39 37 36 37 37 37 36 38 40 40 38 34 34 35 38 37 37 38 39 38 38 39
17 18 18 18 19 19 19 20 19 19 19 19 19 18 18 19 20 20 19 16 14 13 13 14 14 14 13 12 11 8 5 2 5 6 5 1 4 8 12 14 16 18 19 16 13 15 19 22 24 24 24 23 24 26 31 36 39 40 40 39 38 39 40 38 37 36 36 36 36 36 36 38 40 41 40 36 33 33 36 36 37 38 39 39 39 40
17 17 18 18 18 18 18 19 19 19 19 19 19 19 19 19 19 19 18 15 14 13 13 14 14 14 13 12 10 8 5 1 4 5 5 2 3 8 12 14 16 19 19 17 14 13 16 20 23 24 23 22 21 23 26 30 33 36 38 39 40 39 38 36 35 35 36 36 36 36 37 39 41 42 42 39 34 32 34 35 35 36 39 40 40 41
16 17 17 17 17 17 17 18 19 19 19 18 18 18 18 17 16 16 15 15 15 15 14 13 13 13 13 11 9 7 5 1 2 4 4 3 4 8 11 14 16 18 19 18 14 12 14 18 22 23 23 22 20 20 24 26 28 30 33 36 39 39 38 35 34 33 34 35 36 36 37 41 44 44 43 41 36 33 32 33 34 35 37 39 40 40
16 16 17 17 17 17 17 18 18 19 19 18 17 16 15 14 14 14 15 15 16 16 14 12 12 12 11 9 7 5 4 1 1 3 4 5 5 7 11 13 16 18 19 18 15 12 12 16 21 24 25 24 21 19 21 24 26 28 29 32 36 38 38 37 35 33 33 34 35 36 38 42 44 44 42 41 39 35 32 33 33 34 36 38 39 39
15 15 16 16 16 16 17 17 18 19 19 17 15 14 13 12 12 13 13 14 15 15 14 12 10 9 9 6 4 4 3 2 1 1 3 5 6 8 11 13 16 18 18 17 15 13 12 14 18 22 26 27 24 21 20 22 24 26 27 30 33 37 39 39 37 34 33 33 33 35 38 41 43 43 42 41 39 35 32 33 34 34 35 37 38 38
15 15 15 15 15 15 15 15 16 18 19 17 15 14 12 11 10 11 11 12 13 13 13 11 8 7 6 4 2 1 2 2 2 1 3 6 7 9 11 14 16 18 18 17 16 13 11 13 16 19 25 28 27 24 21 21 23 25 27 28 30 34 37 39 39 37 35 33 33 33 35 37 39 40 40 39 37 34 32 33 35 35 35 35 36 37
15 15 15 15 15 15 15 14 15 17 18 17 16 14 13 12 12 11 11 10 10 11 11 9 7 5 4 3 2 1 0 2 3 2 3 6 8 10 13 15 18 19 18 17 16 14 12 12 14 17 21 26 28 25 22 21 22 25 27 28 28 30 32 36 38 39 37 36 35 35 35 35 35 36 36 36 35 33 31 32 35 37 36 35 35 36
14 15 15 14 14 14 14 13 14 16 18 17 15 13 13 14 14 13 13 12 12 11 10 9 6 4 3 3 3 2 1 1 3 3 2 5 9 12 14 17 18 19 18 17 16 14 11 10 12 14 17 22 26 26 23 23 23 24 27 28 28 28 28 30 34 37 38 38 38 38 37 36 34 33 33 34 33 31 29 30 33 36 37 37 37 37
13 14 14 13 13 13 12 12 14 16 17 16 14 11 11 13 14 14 13 13 13 14 12 11 8 6 3 2 4 4 2 1 2 3 2 5 9 13 15 17 18 19 18 17 16 15 12 8 9 11 14 17 22 25 24 23 23 25 26 29 30 29 27 27 29 32 35 37 38 38 38 37 35 34 32 32 31 30 28 28 31 36 38 39 39 39
13 13 12 12 12 12 11 12 13 15 17 15 13 11 11 12 13 13 13 13 14 15 15 12 10 7 5 2 4 5 3 1 1 2 2 4 9 14 16 18 19 20 18 17 16 15 13 9 7 9 12 14 18 22 24 24 24 24 25 29 31 31 30 28 27 28 30 33 36 37 37 37 36 34 33 32 31 30 29 28 30 34 38 39 40 41
11 12 11 11 11 11 11 12 13 14 14 14 12 11 12 13 14 13 12 12 13 15 16 15 11 8 6 5 3 4 4 3 2 1 2 3 8 14 17 18 20 20 18 16 16 16 15 11 8 9 11 13 16 19 23 23 23 24 25 27 30 32 32 31 29 28 28 29 32 35 36 37 36 35 34 33 32 31 30 29 29 32 36 39 40 40
11 11 11 10 10 10 11 12 12 12 12 12 12 11 12 14 14 14 12 12 13 14 15 16 13 10 5 2 3 5 5 3 2 0 1 2 7 13 17 18 20 20 18 16 16 17 16 12 9 9 10 13 15 18 21 22 22 23 25 26 28 31 32 33 32 31 29 29 30 33 35 36 36 36 35 35 34 33 31 30 29 30 33 36 38 39
10 10 10 10 9 9 10 11 11 11 11 11 11 12 13 13 14 14 13 13 13 14 14 14 14 11 5 1 5 6 5 3 1 1 1 2 7 12 16 18 19 19 17 16 16 17 16 13 11 10 11 13 15 17 18 19 20 22 24 26 28 29 30 32 34 33 31 31 31 32 35 36 37 36 36 35 35 34 32 31 30 30 31 33 36 38
10 10 9 8 8 9 10 10 10 10 10 11 12 12 13 13 13 13 13 13 13 14 14 13 13 11 6 1 5 6 4 2 0 0 0 3 7 11 15 17 18 18 17 16 16 17 16 13 11 10 11 12 14 15 16 15 16 19 22 25 28 29 29 30 31 33 32 31 31 32 35 37 37 36 36 35 35 34 33 32 31 30 30 32 34 37
9 9 8 8 8 9 9 10 10 10 11 11 12 12 12 12 12 12 12 12 13 13 12 11 10 7 2 5 9 9 7 4 2 1 1 2 6 9 13 15 17 18 18 17 17 17 16 13 11 10 10 11 13 14 15 13 13 16 20 23 26 29 30 30 30 30 31 31 31 33 35 37 37 36 35 35 35 34 34 33 32 31 31 31 33 36
9 8 8 8 8 9 10 10 10 10 11 11 12 12 11 11 11 11 11 11 11 11 9 8 6 3 1 4 10 13 12 9 6 4 1 2 4 6 10 12 15 17 19 19 18 17 16 13 11 10 10 11 12 14 15 14 14 14 17 20 23 27 30 31 30 30 30 31 32 32 34 37 37 36 35 35 34 34 33 33 33 32 32 30 31 35
9 8 8 8 8 9 10 10 10 11 11 11 12 12 12 11 10 10 10 10 10 10 9 8 5 3 3 3 7 11 13 13 11 8 5 1 1 3 5 9 13 16 18 18 19 18 15 14 12 12 11 11 12 14 15 15 15 14 15 17 20 23 27 30 31 31 31 31 31 32 34 36 36 36 35 34 34 33 32 31 31 32 32 31 32 34
10 9 8 8 9 9 10 10 10 10 11 12 13 13 12 11 10 10 9 9 9 9 9 8 6 5 5 6 9 13 13 13 12 9 7 3 0 2 2 6 11 14 16 17 18 18 16 14 13 13 13 13 13 14 15 15 15 15 16 17 18 20 23 27 30 32 32 32 31 32 33 35 36 35 35 34 34 33 31 30 30 31 31 32 33 34
10 10 9 9 9 10 10 10 10 11 12 13 13 13 12 11 10 10 9 9 9 10 10 9 9 8 8 10 13 15 14 13 11 8 6 4 1 2 2 5 8 11 13 15 16 16 15 15 14 14 15 15 15 15 16 16 16 16 16 17 18 19 21 24 27 31 32 32 32 32 33 35 36 36 35 34 33 32 31 30 30 30 31 33 34 36
11 10 10 10 10 10 10 11 12 12 13 14 13 13 12 11 10 10 10 10 10 10 10 10 10 10 10 12 17 18 13 11 9 6 4 3 1 2 4 5 6 8 10 12 13 14 14 14 14 15 17 17 16 15 17 17 16 16 16 18 19 19 21 23 26 29 32 33 33 33 34 35 36 36 35 34 33 32 30 29 29 30 31 33 34 36
11 11 11 11 11 11 11 12 13 14 13 13 13 12 11 10 10 10 11 11 11 11 11 11 12 13 14 17 19 17 11 9 7 4 3 3 2 3 5 5 5 7 8 11 12 13 13 13 14 15 17 17 16 15 16 16 16 16 16 18 19 20 20 22 24 28 31 33 33 34 34 35 36 36 35 34 33 32 30 29 29 29 30 31 33 35
11 12 12 12 12 12 12 13 13 13 12 12 13 12 11 11 10 10 12 12 12 12 12 14 15 16 16 18 16 13 9 6 4 4 4 3 3 4 6 6 6 5 6 9 12 12 12 12 13 15 17 17 16 15 14 15 15 15 16 18 19 19 19 21 23 27 30 32 33 34 34 35 35 35 35 34 33 32 30 29 28 29 29 30 31 33
11 12 12 12 12 12 13 12 12 12 12 12 13 13 12 11 10 11 12 12 12 13 14 14 15 15 14 14 13 11 8 6 3 3 3 4 3 3 5 6 6 4 4 7 10 12 12 11 12 14 17 18 17 15 14 14 13 14 15 18 19 19 19 20 23 26 29 31 33 34 35 35 35 35 34 34 33 32 30 29 28 28 28 29 30 32
12 12 12 12 13 13 13 13 12 12 12 12 13 13 12 11 11 12 11 11 11 11 12 12 11 10 9 9 9 9 8 7 4 3 4 3 3 2 3 4 5 4 3 5 8 9 11 11 11 14 17 19 19 17 15 14 13 13 15 17 19 19 18 20 23 27 29 31 32 34 35 35 35 34 34 33 33 31 30 28 27 27 27 28 29 32
12 12 12 13 13 13 13 13 12 11 11 12 13 12 11 11 11 10 8 7 8 9 9 9 8 7 7 6 6 6 8 9 7 4 3 3 3 2 0 2 4 5 3 3 6 8 9 9 10 12 16 21 21 19 17 15 14 14 14 17 18 18 18 19 23 26 28 30 32 34 34 35 34 34 33 33 32 31 29 28 26 26 26 27 29 32
11 12 12 12 13 13 13 12 11 10 10 11 12 11 11 10 9 7 6 6 7 8 8 6 5 5 6 5 6 7 9 10 11 9 5 2 2 1 1 1 2 3 3 1 4 7 8 8 8 10 14 19 22 21 19 17 16 15 14 16 18 18 17 18 22 26 27 29 31 32 33 34 34 33 32 32 30 29 28 27 26 25 26 27 28 29
11 11 12 12 12 12 12 11 10 9 9 10 10 10 10 9 7 5 5 6 7 7 6 5 4 3 3 4 6 9 10 9 11 12 7 4 2 1 1 1 1 2 3 2 2 6 8 8 8 9 11 16 20 22 21 20 19 17 16 17 18 18 16 17 20 23 25 26 28 30 32 33 34 33 31 30 29 28 27 26 26 26 27 27 27 27
12 12 12 12 11 11 11 10 9 8 8 9 9 8 7 6 5 5 6 6 7 6 6 5 5 4 4 6 8 9 6 6 11 13 10 6 3 1 1 1 1 1 2 1 1 5 8 9 9 9 10 13 17 20 22 23 22 20 17 16 18 18 16 17 19 22 24 24 26 28 31 32 32 31 30 29 28 28 27 27 26 27 28 27 27 27
14 14 13 13 12 12 11 11 10 9 8 8 7 6 5 5 5 6 6 6 6 6 5 5 5 5 5 6 6 4 1 5 10 14 13 9 4 3 3 2 1 0 0 1 0 2 4 7 10 11 10 11 14 17 21 25 25 22 18 16 17 18 17 17 19 22 24 23 24 26 29 31 31 30 29 28 28 28 28 28 28 29 29 29 29 31
15 14 14 14 14 13 13 12 11 10 9 9 8 7 6 6 6 6 6 6 6 6 5 5 5 5 5 3 2 1 1 4 9 14 15 11 6 4 6 4 2 0 1 1 1 1 2 4 7 11 12 11 12 15 19 23 25 22 18 16 17 18 18 17 19 22 24 23 23 25 27 28 29 29 28 28 28 28 29 30 30 31 32 32 34 37
14 13 13 14 14 14 13 13 13 12 11 11 10 9 9 8 8 8 7 7 6 6 6 6 5 5 4 3 3 2 2 4 9 13 15 11 7 5 6 6 4 2 2 2 2 1 1 2 5 10 13 13 12 13 17 20 21 20 17 16 16 17 17 17 19 21 24 23 23 23 24 25 26 27 27 27 29 30 31 32 33 34 35 37 39 41
13 12 13 13 13 13 13 13 13 13 12 12 11 11 10 10 9 9 8 7 7 7 7 7 6 6 5 5 5 5 6 9 11 12 14 11 7 5 6 7 7 5 2 2 2 2 0 1 4 8 13 14 14 13 14 16 17 18 17 16 16 15 16 17 19 22 23 23 23 23 23 24 25 26 27 28 29 31 32 34 35 37 39 42 44 45
12 12 12 12 12 12 12 13 13 12 12 12 12 12 12 12 11 10 9 8 8 7 7 7 7 6 6 6 7 7 9 11 11 11 12 11 7 5 7 8 8 6 4 2 3 2 2 2 4 8 12 14 15 14 14 15 16 17 17 17 16 15 17 19 21 23 24 24 23 23 24 25 26 27 28 29 30 32 34 35 37 39 42 45 48 48
12 11 12 12 12 12 12 13 13 12 12 12 13 13 13 13 13 12 10 9 8 8 8 8 8 8 8 7 7 8 10 12 12 11 11 11 8 7 8 7 7 6 5 1 3 3 3 4 6 9 11 12 13 15 16 17 18 18 19 19 19 19 21 23 25 26 26 26 27 27 28 29 30 31 31 32 32 33 35 36 38 40 44 48 50 51
11 11 11 12 12 12 12 12 13 13 13 13 14 14 14 14 14 13 11 10 9 8 8 8 8 9 10 10 11 12 14 14 13 11 11 10 9 8 6 5 5 6 5 3 2 4 4 5 8 11 12 10 9 11 15 19 21 22 22 23 23 24 25 27 28 30 31 31 31 32 32 33 33 34 34 35 36 37 37 38 40 43 46 49 51 52
11 11 11 11 12 12 12 12 13 13 14 15 15 16 16 15 14 13 12 11 9 8 8 8 8 8 9 11 12 14 15 14 12 10 9 9 10 10 9 9 9 7 6 5 3 3 6 6 8 10 12 10 8 10 15 20 23 24 25 26 28 29 29 30 31 33 35 35 35 35 34 34 34 35 36 38 39 41 41 43 44 46 48 50 51 51
12 12 12 12 12 12 12 13 13 14 15 15 16 16 16 16 14 13 12 11 10 9 8 8 8 8 8 8 10 11 11 11 11 9 8 8 9 11 13 14 13 10 7 7 5 4 7 6 5 5 7 9 12 15 18 21 22 23 25 27 29 31 31 32 34 36 37 38 37 37 36 35 36 37 38 40 41 42 43 43 45 46 48 48 48 49
13 12 12 13 13 13 13 13 14 15 16 16 16 16 16 15 14 13 12 10 10 9 8 8 8 7 7 7 7 8 9 9 9 8 8 7 8 10 13 15 15 12 7 5 4 5 7 6 5 4 6 9 13 16 19 21 22 24 26 28 29 29 30 32 35 37 39 39 39 38 37 37 38 39 39 40 41 42 42 42 43 45 46 46 44 43
14 13 13 13 13 13 13 14 15 15 16 15 15 15 15 15 15 14 12 11 10 9 8 7 6 6 6 7 7 8 8 8 8 7 7 7 8 9 12 14 14 11 7 4 3 6 7 5 4 7 12 13 14 15 17 20 23 26 27 25 23 23 25 29 33 36 38 40 40 40 39 38 39 38 38 39 40 41 41 42 43 45 47 46 44 41
14 14 14 14 14 14 14 15 15 15 15 14 14 14 15 16 15 15 14 13 11 11 10 9 7 6 6 7 8 9 9 8 6 5 5 6 7 9 11 12 12 9 5 2 3 7 7 4 5 9 14 17 18 18 18 19 22 25 27 24 22 23 25 28 31 34 37 39 41 41 40 39 37 36 36 36 37 39 41 43 43 44 45 47 47 45
14 14 14 14 14 14 15 15 15 15 14 13 13 14 15 16 15 15 14 14 13 14 13 12 11 10 9 9 10 11 11 10 8 5 2 2 5 7 9 11 10 8 4 2 5 8 7 6 6 9 14 18 19 19 18 19 21 23 25 26 27 27 26 26 28 32 34 36 38 39 39 37 36 35 34 34 34 36 39 41 42 42 42 42 44 46
15 15 15 15 15 15 15 15 15 15 15 14 14 14 15 15 15 14 13 12 12 13 14 13 12 11 11 11 12 13 13 13 11 8 5 2 2 5 8 9 8 6 5 5 8 10 9 9 7 8 11 17 20 20 19 18 19 21 24 28 30 26 20 21 25 28 30 32 34 35 36 36 36 36 36 35 34 35 36 38 39 40 39 39 39 41
15 15 15 15 15 15 16 16 15 15 14 14 14 14 15 16 15 14 13 12 12 12 13 13 11 10 11 11 13 14 15 15 14 11 9 6 3 4 6 7 7 6 7 8 11 13 12 11 8 7 9 15 19 22 21 20 20 21 24 28 29 28 24 23 25 27 28 29 31 33 35 37 38 38 38 36 36 35 35 36 37 37 38 38 38 38
15 16 16 16 16 16 16 16 16 15 15 14 14 15 15 16 15 14 13 12 12 13 13 13 11 10 10 11 13 14 15 15 16 15 13 10 7 6 7 7 8 10 11 12 13 15 15 13 9 6 8 13 18 22 23 23 22 22 22 24 26 26 26 27 29 29 29 30 31 34 37 40 41 40 38 36 35 34 34 35 35 36 36 37 39 40
16 17 17 17 16 16 17 17 17 16 16 15 15 15 16 16 15 14 14 13 13 12 13 13 12 10 10 11 12 13 14 15 15 16 16 14 13 12 12 13 14 15 16 16 16 17 16 14 11 8 7 11 16 20 23 24 24 23 23 24 26 27 28 28 27 28 30 32 34 36 38 41 42 40 37 35 33 32 32 33 34 35 36 38 39 41
18 18 17 17 17 17 17 17 17 17 16 16 16 16 16 16 15 15 14 14 13 13 13 13 13 12 11 11 12 13 13 13 14 14 15 15 15 16 16 17 18 18 19 20 20 19 18 16 13 10 8 9 12 16 20 22 23 24 24 26 27 28 27 25 25 26 29 32 34 36 38 40 40 38 36 34 32 31 30 30 32 34 36 38 39 41
18 18 18 17 17 17 17 18 17 17 17 16 16 17 16 16 16 16 15 15 14 13 13 13 13 12 12 12 12 13 12 12 13 13 13 13 14 15 17 19 21 21 22 22 22 22 21 19 16 12 8 7 9 13 17 20 22 24 25 28 29 28 27 26 26 27 30 31 33 35 37 38 38 37 36 34 32 30 30 30 31 32 35 37 39 40
18 18 18 17 17 17 17 17 17 17 17 17 17 17 17 17 17 16 15 15 14 14 13 13 13 12 11 12 13 14 13 13 13 12 12 11 10 11 12 15 19 22 23 24 24 23 22 21 18 16 14 10 9 13 16 19 22 24 26 28 29 29 28 28 29 30 31 30 30 31 32 34 36 38 38 34 31 29 30 30 31 32 34 36 39 40
18 18 18 17 17 17 17 17 17 17 17 17 17 17 17 17 17 16 15 15 14 14 13 13 13 12 12 12 13 14 14 13 13 13 12 11 8 7 6 8 12 16 20 21 22 22 21 20 19 18 17 14 11 11 14 18 22 24 24 25 27 29 30 30 31 31 31 29 28 28 28 29 32 35 37 34 32 30 31 31 31 32 33 36 38 40
19 19 19 18 18 17 17 17 17 17 17 17 17 16 17 17 17 16 16 15 15 14 13 13 13 12 12 12 12 13 13 13 13 13 13 12 9 6 4 2 5 9 13 15 15 15 14 13 13 14 16 15 13 10 13 17 21 23 22 22 25 29 31 32 32 32 31 29 29 29 29 29 30 33 35 34 32 30 29 29 30 31 33 36 38 39
Wind_Direction
307 309 311 313 313 312 311 311 311 310 308 307 307 308 311 312 312 313 316 319 320 318 313 310 310 313 316 316 311 304 305 8 55 61 62 92 243 245 248 262 278 287 287 274 243 220 213 209 206 203 200 197 195 196 199 201 203 205 204 199 196 196 199 202 204 204 203 203 205 207 208 209 209 209 209 208 206 203 200 197 199 202 204 204 202 198
312 312 313 314 315 314 312 312 312 310 307 306 305 305 306 307 308 310 314 318 319 315 308 305 306 307 309 311 306 298 295 357 58 63 66 86 235 241 244 256 273 283 285 277 254 226 214 210 208 205 202 198 196 195 197 199 202 203 203 199 197 196 197 199 199 198 197 197 198 201 204 207 209 210 210 210 209 207 203 200 201 202 203 201 199 195
316 316 315 316 316 315 312 312 312 309 306 303 302 302 302 302 303 304 306 309 308 304 300 299 300 302 304 306 303 295 289 334 62 67 72 103 215 234 240 251 267 278 282 277 262 235 215 211 210 208 205 199 194 193 194 197 200 201 202 200 198 197 197 196 195 194 193 192 193 195 200 205 209 210 211 212 210 207 205 204 204 204 202 198 194 191
318 317 317 317 317 314 311 311 311 310 308 305 302 300 300 298 298 298 297 297 297 296 295 295 296 297 298 300 300 295 286 307 70 75 87 122 190 223 234 246 262 274 279 276 268 245 218 211 211 211 209 203 194 189 193 197 199 200 200 199 198 197 196 195 194 192 191 190 190 192 197 204 208 210 211 212 211 208 205 206 207 206 202 196 192 189
318 317 316 317 315 314 313 314 316 317 318 316 311 305 300 296 294 293 294 295 296 297 297 297 295 291 291 293 296 294 280 267 82 86 104 131 172 210 227 240 257 271 278 277 270 252 224 211 210 212 212 208 198 190 192 196 198 199 199 199 197 196 195 195 194 191 189 188 189 191 195 202 206 208 209 210 210 209 206 205 207 207 203 196 192 190
316 316 316 316 314 313 314 317 324 330 333 330 326 318 308 301 296 295 295 297 299 299 300 299 295 289 284 282 288 291 274 259 249 111 126 141 167 198 219 235 252 267 277 278 272 256 231 211 208 211 212 211 206 199 194 194 196 198 198 198 198 196 195 195 194 192 189 187 187 189 194 199 202 205 206 207 208 209 207 205 205 205 201 197 194 191
316 316 317 316 314 313 314 319 329 337 339 337 333 328 324 318 311 307 305 304 305 305 305 302 296 286 274 262 262 281 270 268 266 217 149 151 170 194 213 228 245 261 275 279 274 260 236 211 206 208 211 211 208 204 197 193 194 195 195 196 197 197 196 196 195 194 191 188 187 188 192 195 198 200 202 204 206 207 208 204 202 201 199 197 195 193
316 317 318 318 318 317 318 323 332 338 339 336 334 334 338 337 334 329 328 328 328 326 321 310 296 276 256 227 192 142 246 263 262 242 175 162 175 194 209 222 239 255 270 278 275 262 240 213 203 206 209 209 206 202 196 194 193 193 191 192 194 197 198 198 197 196 194 192 190 189 190 193 195 197 198 200 202 205 206 203 199 197 195 196 196 195
317 318 319 320 321 321 322 327 333 337 337 335 334 337 343 343 340 337 338 343 347 348 345 336 321 290 246 204 169 134 103 239 257 261 221 173 178 192 206 217 232 250 265 274 275 265 246 215 200 201 206 204 202 199 196 195 194 191 189 189 191 194 197 199 199 199 198 197 194 192 191 191 193 195 197 198 200 202 203 201 197 194 191 193 195 195
318 319 319 321 322 323 325 328 331 334 336 335 336 340 346 346 342 338 337 336 341 346 349 346 336 318 283 190 157 140 122 191 267 283 258 183 179 189 202 211 225 242 258 269 273 269 257 230 203 198 200 199 198 197 196 195 194 191 188 187 189 192 195 198 199 200 201 201 199 197 194 192 191 193 195 197 199 201 201 198 195 192 190 191 193 194
321 321 320 321 323 325 328 328 329 333 338 340 341 345 351 352 348 342 336 332 333 336 339 340 334 319 299 247 169 147 133 142 259 289 272 195 183 189 199 207 218 233 251 263 270 270 264 251 221 201 195 194 195 196 197 196 194 191 189 188 189 191 193 196 198 200 201 202 202 199 196 194 192 192 193 195 198 201 200 197 194 191 190 190 191 192
323 323 322 321 323 326 330 330 332 337 344 348 350 350 350 351 348 342 334 328 327 327 326 329 330 323 301 272 205 152 133 134 155 220 273 205 186 188 197 205 214 225 240 254 264 267 263 257 237 212 197 192 192 194 195 195 193 191 190 190 190 191 193 195 197 198 199 201 202 200 197 194 193 193 193 194 196 198 198 196 193 191 190 191 191 191
323 323 322 321 323 327 331 333 337 342 350 354 353 348 343 342 341 338 331 326 322 321 319 320 322 324 319 263 178 147 129 121 130 145 328 192 177 183 194 203 211 219 230 244 256 260 258 255 244 226 208 199 196 195 195 194 192 190 190 191 192 193 194 196 197 197 197 199 201 200 197 194 194 194 195 195 195 196 196 194 191 189 189 191 192 191
325 324 323 322 324 328 333 335 337 342 347 350 347 340 335 334 336 336 333 328 324 320 318 315 315 319 331 116 134 128 118 113 105 42 38 145 161 173 187 198 206 212 221 234 247 253 253 248 242 232 217 208 203 202 199 196 193 191 190 192 193 195 196 199 199 198 197 198 201 201 198 195 194 195 195 195 195 194 194 194 191 189 189 191 192 192
325 324 323 322 325 329 332 333 334 336 339 341 339 335 332 332 335 337 335 331 327 324 322 318 316 315 309 119 116 110 101 99 101 290 113 134 145 158 175 188 198 206 214 225 237 245 248 244 239 232 220 212 209 208 207 204 199 194 192 192 193 195 197 200 201 200 198 199 202 203 200 196 195 196 196 195 194 193 194 194 193 192 190 191 193 193
323 322 321 322 324 326 329 329 328 329 332 335 336 334 332 332 335 336 334 331 328 327 327 327 324 317 310 91 80 69 63 46 11 259 204 143 125 137 160 174 186 196 208 218 228 237 241 239 236 231 222 214 211 211 212 214 210 201 195 193 194 195 197 199 201 201 199 199 202 204 202 198 197 197 196 196 194 193 192 192 193 193 193 193 193 192
320 320 319 319 321 323 325 324 324 325 329 333 333 332 328 328 329 331 330 329 328 328 328 330 328 318 333 34 39 42 47 34 10 337 255 170 115 118 148 160 170 182 197 208 218 227 231 230 228 226 220 212 208 208 211 216 217 210 200 196 195 197 198 198 200 200 199 199 202 205 204 200 197 197 196 195 194 192 191 191 191 192 193 194 193 190
318 318 317 318 319 321 322 321 321 324 329 331 331 328 325 324 324 326 327 327 326 325 323 324 324 319 317 337 352 2 14 13 2 345 326 283 128 117 138 151 159 169 182 193 206 216 221 220 219 217 213 207 204 204 207 214 218 217 208 202 200 200 200 200 200 199 199 200 203 206 205 201 197 196 195 194 193 191 190 189 189 191 192 193 192 189
316 316 316 317 319 320 319 318 320 324 329 330 329 325 321 321 322 324 326 325 322 319 315 313 310 306 302 304 310 322 343 355 355 343 322 316 12 109 118 142 149 157 168 179 192 202 210 212 211 207 203 201 200 202 205 212 217 218 212 207 205 204 203 203 202 200 199 200 204 207 206 201 197 195 194 193 191 189 188 188 188 189 190 192 191 190
314 313 315 319 320 318 316 315 318 322 325 326 323 319 316 317 320 322 323 322 318 313 309 305 301 299 299 300 301 308 324 341 345 334 314 305 298 119 115 135 143 150 158 170 181 191 199 204 202 198 195 196 197 199 202 210 216 218 213 209 207 207 206 206 204 202 201 202 205 207 206 200 196 194 193 191 190 188 187 187 187 188 189 190 191 190
312 311 314 318 318 315 311 312 314 318 320 321 317 313 311 314 319 321 321 318 315 311 306 301 297 298 300 299 299 305 321 329 329 320 306 300 296 120 120 129 138 145 152 162 172 182 192 197 195 191 189 192 193 195 198 207 215 217 212 209 209 209 209 208 206 204 202 203 205 206 204 199 196 193 192 191 190 189 187 187 187 188 189 189 190 191
310 310 312 314 313 309 306 307 311 315 317 317 311 305 308 315 320 320 318 315 312 308 303 298 296 295 295 292 298 307 319 315 300 287 294 297 336 66 100 112 128 140 147 156 166 176 186 191 189 186 185 189 191 193 197 205 212 214 210 208 209 211 211 209 207 205 203 203 204 205 202 198 195 193 192 191 191 189 188 187 187 187 188 188 189 190
309 308 310 311 310 307 305 307 311 314 317 315 309 306 308 314 317 316 313 310 306 302 299 296 296 295 294 295 303 314 322 311 288 267 276 279 325 23 75 88 102 122 145 156 163 170 178 183 184 182 182 186 191 195 200 207 212 212 207 205 208 212 214 211 207 204 203 203 203 203 200 197 195 194 193 192 191 190 188 187 187 187 186 186 186 187
312 311 311 312 312 312 313 314 316 318 318 315 312 310 311 313 313 311 307 303 301 300 301 302 302 301 300 301 306 316 331 331 300 244 250 273 316 16 56 70 75 87 131 155 165 170 172 175 176 177 178 185 191 199 206 213 217 215 207 204 206 211 214 212 208 205 204 203 203 202 199 197 196 195 194 193 191 189 187 186 186 185 184 183 182 184
319 316 315 315 316 318 322 322 323 322 321 318 317 316 316 318 319 316 310 305 305 308 309 308 307 307 307 306 309 321 346 349 323 256 251 272 299 336 46 63 64 65 97 153 167 172 174 173 172 173 176 183 191 201 210 217 221 219 211 204 205 209 213 213 209 206 206 205 204 202 200 199 198 197 195 194 192 189 187 185 185 183 182 181 183 186
323 320 319 319 320 322 325 325 323 322 321 320 321 322 324 326 325 320 312 312 317 319 316 313 311 312 315 314 317 331 352 1 358 337 304 288 288 292 46 73 64 60 65 147 173 179 178 174 171 172 175 180 188 199 210 218 224 224 216 207 205 208 212 213 210 207 207 207 205 203 201 200 199 198 196 195 193 191 189 186 183 182 182 184 187 190
329 326 325 325 325 326 328 327 325 322 322 324 324 325 328 331 330 323 316 323 326 323 318 316 316 317 319 319 316 323 337 354 6 13 13 332 294 276 123 93 59 47 45 106 176 182 181 176 173 174 176 179 185 193 204 215 225 229 223 210 206 208 212 212 209 206 206 206 205 203 201 199 198 197 196 195 193 190 188 185 182 183 185 188 191 192
338 335 333 333 332 331 331 329 327 325 325 329 329 328 328 332 332 326 322 325 325 321 317 319 322 324 324 319 311 313 327 350 6 12 26 5 317 269 119 71 20 17 19 7 179 176 175 175 177 178 180 180 182 186 195 207 221 231 228 215 207 207 211 211 207 204 203 203 203 201 200 198 197 196 194 192 190 187 184 182 181 183 186 188 188 186
349 346 344 343 342 341 339 340 340 337 335 335 335 334 331 335 331 321 318 322 321 317 313 318 323 325 318 309 302 302 316 359 12 16 28 13 346 352 68 45 9 356 8 338 166 160 164 174 178 178 181 184 183 183 187 199 214 228 232 217 207 205 208 208 205 202 200 198 198 198 197 196 195 194 192 190 187 185 183 182 181 182 183 183 180 176
350 349 348 349 350 351 351 353 353 350 347 345 344 345 346 345 333 321 317 319 316 312 311 313 318 321 319 312 302 292 303 20 15 15 22 15 1 0 21 25 27 28 321 281 234 131 143 165 176 180 181 185 186 185 185 193 206 220 227 216 207 204 205 205 204 201 198 195 194 195 195 195 195 194 192 190 188 186 185 183 181 179 177 175 171 165
345 345 345 348 350 352 354 355 355 355 356 356 357 357 356 350 338 329 323 318 311 306 305 305 307 312 317 318 310 301 25 17 7 6 11 7 354 343 0 354 355 239 250 244 265 52 100 137 164 175 181 183 187 189 189 192 200 209 216 211 205 203 203 203 202 201 198 195 193 193 194 194 194 194 192 191 189 187 185 182 178 173 170 166 160 156
342 343 343 345 346 348 351 352 354 356 357 357 355 354 352 347 340 333 326 319 311 303 299 297 297 299 300 292 289 293 311 312 334 351 359 357 345 337 351 342 338 332 275 250 268 330 86 97 143 160 173 179 185 191 192 192 195 200 204 204 204 203 201 200 199 198 197 196 195 194 193 192 192 191 189 188 186 184 182 179 174 169 163 157 152 150
342 343 344 344 345 345 347 349 351 353 352 350 348 346 345 343 340 335 328 323 317 307 297 292 292 293 289 282 274 271 276 287 306 330 345 348 341 333 339 334 333 332 316 248 259 288 333 113 132 145 157 167 175 183 188 190 192 194 197 200 201 200 197 193 191 190 191 192 192 192 190 190 188 187 185 183 182 182 181 179 174 167 159 153 148 146
342 343 345 345 345 345 346 347 348 348 347 345 344 343 341 340 339 336 331 326 320 311 300 290 285 284 287 284 278 275 277 286 299 317 329 337 334 320 319 318 319 322 321 241 214 231 248 212 154 140 142 150 159 168 177 184 189 191 192 194 192 188 183 180 178 177 178 178 178 176 176 177 178 178 177 177 178 179 179 178 173 166 158 152 147 144
344 346 347 347 347 346 345 346 346 345 344 343 342 342 341 339 338 336 332 328 323 315 306 296 286 279 276 276 278 278 278 290 302 314 319 322 318 310 310 306 308 316 321 270 185 182 194 200 172 149 138 134 139 150 161 171 177 178 178 179 178 173 170 169 166 162 161 159 157 155 156 157 159 161 163 167 170 172 173 172 168 163 156 152 148 145
346 348 349 349 348 346 345 344 344 343 342 342 342 342 341 339 338 336 333 331 328 322 314 305 295 286 279 274 272 275 283 297 309 316 315 311 305 297 291 281 287 302 317 308 201 172 170 181 168 153 140 128 122 130 142 152 156 157 156 158 158 159 159 159 157 154 150 146 143 141 142 143 145 147 150 154 159 161 163 162 160 156 153 150 148 146
348 349 350 350 349 346 344 343 343 342 341 340 340 341 340 338 337 336 334 334 334 331 324 316 306 296 288 284 281 284 292 303 311 312 309 304 294 282 270 267 270 278 293 296 277 192 172 171 165 154 142 135 128 126 129 134 137 138 137 140 143 145 146 149 150 148 144 140 138 136 136 136 137 137 139 142 145 147 148 149 148 147 146 146 145 145
352 351 351 350 349 346 343 342 341 340 339 338 338 339 339 337 337 336 336 338 340 339 334 326 318 311 304 298 296 299 305 310 312 310 305 296 284 273 266 265 265 266 271 284 279 226 178 173 169 158 143 134 132 132 132 129 126 125 125 130 133 135 137 141 143 143 141 138 136 135 134 134 133 133 134 135 136 136 136 136 138 139 139 140 140 141
352 351 350 349 348 346 343 340 339 338 338 338 338 339 340 340 341 342 342 342 344 343 339 332 329 331 334 332 327 325 325 323 321 315 304 289 273 264 261 261 262 263 271 286 269 222 189 186 182 164 141 131 130 131 132 131 127 124 122 122 124 127 131 135 138 139 138 137 135 133 132 132 133 132 132 133 133 132 131 132 134 136 136 136 135 136
351 349 348 347 346 344 342 339 338 338 338 339 341 343 345 346 348 350 352 351 351 353 354 353 354 0 9 11 8 0 353 344 335 321 303 282 262 251 251 254 256 261 277 292 239 200 187 193 183 158 145 139 135 134 132 132 131 129 125 120 117 119 124 130 133 135 136 136 135 134 132 132 132 132 131 132 133 133 133 134 135 137 138 137 134 132
348 347 346 345 344 343 342 341 341 341 342 343 346 349 352 353 352 351 354 356 0 6 12 16 23 33 42 40 34 27 20 14 2 337 304 276 253 243 243 247 250 257 275 282 189 180 174 171 162 153 146 141 136 133 131 133 134 133 130 127 123 121 124 128 131 132 133 134 135 134 134 133 132 132 132 132 133 134 136 137 137 137 139 140 139 137
347 346 344 342 341 342 343 344 346 347 350 351 353 355 357 356 354 351 350 354 359 5 13 19 25 29 33 38 40 39 37 38 40 39 3 279 250 240 240 244 244 246 248 190 154 156 158 151 149 151 148 141 135 131 129 131 132 132 130 127 123 121 120 123 128 131 131 131 132 133 133 133 132 131 131 130 131 133 136 137 137 138 138 139 140 141
346 344 342 342 343 344 346 349 351 353 355 357 358 358 359 359 357 354 352 353 356 2 10 17 21 22 21 21 25 29 34 40 48 58 66 80 223 236 239 241 239 230 209 171 142 136 144 143 143 149 151 142 136 132 128 126 126 127 128 129 127 123 119 122 126 128 129 129 130 132 133 133 132 131 131 131 131 132 134 135 136 137 137 138 138 140
345 345 344 346 348 350 353 355 355 355 356 358 359 359 359 1 0 359 358 358 1 5 10 15 21 25 24 17 13 15 22 33 45 56 70 86 128 192 215 224 220 205 187 164 142 131 131 133 137 146 151 144 138 134 130 128 127 128 130 131 131 131 131 132 131 129 128 129 131 132 134 134 133 132 131 131 131 133 134 134 135 136 137 138 139 140
349 349 349 351 352 354 356 356 356 356 358 360 0 0 0 2 3 4 4 4 6 10 13 17 22 26 24 16 12 10 13 22 33 46 60 75 99 131 153 160 161 159 156 148 140 132 124 118 120 135 147 143 139 136 134 132 131 130 130 129 128 127 128 131 133 132 131 131 132 133 134 135 134 131 128 127 128 130 132 134 135 136 138 140 141 142
355 355 354 354 355 357 357 357 358 359 1 2 2 2 2 4 5 7 8 10 11 13 17 23 29 31 26 16 11 10 9 13 21 32 45 61 80 101 115 125 130 133 133 130 129 127 121 114 112 120 132 136 135 135 135 135 133 130 128 126 124 123 125 128 132 134 135 134 133 133 134 135 133 130 125 123 122 124 127 130 133 136 138 141 142 142
358 358 357 356 356 357 358 359 359 1 2 3 3 3 3 5 7 8 11 14 15 17 19 25 30 33 29 22 15 11 7 5 8 18 32 46 64 81 95 106 115 122 124 123 120 117 112 110 109 111 120 130 132 132 133 133 132 131 129 127 126 125 125 127 130 134 135 134 134 134 135 134 131 127 124 122 120 119 121 125 129 133 137 139 140 140
359 359 359 358 357 357 358 359 -0 1 1 1 2 3 5 7 9 11 13 15 18 21 22 24 27 29 27 22 18 13 9 4 4 10 22 35 51 69 83 94 103 110 116 119 119 115 111 109 104 96 90 112 131 133 130 130 131 132 132 131 130 128 126 128 131 133 134 134 135 136 137 135 132 128 125 121 117 115 115 119 123 128 133 135 136 136
2 2 1 0 0 0 359 359 -0 0 1 1 1 2 5 8 11 14 15 16 19 22 24 25 25 25 23 19 15 12 10 7 7 10 16 25 40 59 77 89 98 103 107 110 112 111 109 105 98 86 73 80 110 129 130 130 130 131 132 132 131 129 128 129 132 134 135 135 136 137 137 136 135 133 130 124 117 114 114 116 119 124 128 131 132 132
4 5 4 3 3 2 1 1 1 1 1 1 1 2 4 8 11 14 16 18 21 24 25 26 26 25 22 18 14 11 9 7 7 7 9 13 25 44 64 89 100 103 104 105 105 104 101 92 85 78 72 71 85 112 127 130 131 130 129 129 130 131 130 131 133 135 136 137 137 136 135 134 134 133 130 125 120 116 115 115 118 121 125 128 129 130
6 6 6 6 5 4 3 3 3 3 2 2 3 3 6 8 11 14 16 19 21 22 24 26 28 27 23 18 14 12 9 8 5 3 2 5 10 15 19 74 113 117 115 112 110 107 100 86 73 63 57 58 65 89 126 133 132 128 126 127 130 131 131 132 134 135 136 136 135 135 134 133 132 131 129 126 122 118 115 115 117 121 125 128 128 129
Height
723 721 719 718 717 715 713 712 711 710 708 706 705 704 703 702 701 699 698 697 696 696 696 695 694 693 692 692 691 691 690 690 690 690 690 690 689 689 691 692 693 694 694 694 694 694 694 695 697 699 701 703 705 707 708 710 712 715 718 721 723 726 728 730 731 732 734 736 739 742 744 748 752 755 757 758 760 761 763 764 766 768 769 772 773 775
722 721 719 718 717 715 713 712 711 709 708 706 705 703 702 701 700 699 697 697 696 696 696 695 694 693 692 692 691 690 689 689 689 689 689 689 689 689 690 692 693 694 694 694 694 693 694 694 696 698 700 702 704 706 707 709 711 714 717 719 722 725 727 728 730 731 732 734 737 740 743 747 750 753 756 757 759 761 762 763 765 767 768 770 772 774
722 721 719 718 717 715 713 711 710 709 707 706 704 703 702 701 700 698 697 697 697 696 696 694 693 692 692 691 690 689 689 688 689 689 689 689 689 689 690 691 692 694 694 694 694 693 693 694 695 697 699 701 703 705 706 708 710 712 715 717 720 722 725 727 728 729 731 732 735 738 741 745 749 752 754 756 758 760 762 763 764 766 767 769 771 773
723 721 719 718 717 715 713 712 710 708 706 705 703 702 701 700 699 698 697 696 696 695 695 694 693 692 692 691 690 689 689 688 689 689 689 689 689 689 689 691 692 694 695 694 694 693 694 694 695 697 698 700 702 703 705 707 708 710 713 716 718 721 722 725 727 728 729 731 733 736 740 744 748 751 753 755 757 759 761 762 764 765 766 767 770 772
723 722 720 718 716 715 713 712 710 708 706 704 702 701 700 699 698 697 697 696 695 694 694 693 692 692 691 691 690 689 689 689 689 689 688 688 688 688 689 690 692 694 695 695 694 694 694 695 696 697 698 699 701 702 704 706 707 709 712 714 716 719 721 723 725 727 728 730 732 735 739 743 747 749 752 754 756 758 760 762 763 764 765 766 768 770
723 722 720 718 717 715 713 711 710 708 706 704 702 701 699 698 697 697 696 695 694 693 692 692 692 692 691 690 689 689 689 688 689 688 688 687 687 688 689 691 692 694 695 695 694 694 695 696 696 697 698 699 701 702 704 706 707 708 710 712 715 717 719 722 723 726 727 730 732 734 738 742 746 748 750 752 755 757 758 760 762 763 764 765 767 769
723 722 720 719 717 715 713 712 710 709 707 704 702 700 699 698 697 696 696 694 693 692 692 691 691 691 691 690 689 688 688 688 688 688 687 687 687 688 689 691 693 694 694 694 694 694 694 695 696 696 698 699 700 702 703 705 707 708 709 711 713 715 717 720 722 724 727 729 731 734 738 741 744 747 749 751 753 755 757 759 761 762 763 765 766 768
723 722 720 719 717 715 713 712 711 710 708 706 703 701 699 698 697 696 694 693 692 692 691 690 690 691 690 689 689 688 688 688 688 687 687 687 687 688 690 692 693 693 694 694 694 694 694 694 695 696 697 699 700 702 703 705 706 707 709 710 712 714 717 719 721 723 726 728 731 734 737 740 742 745 747 749 752 754 756 757 759 761 762 764 766 768
724 722 720 719 717 715 713 712 711 710 708 707 705 703 701 699 697 695 694 692 692 691 690 689 690 690 690 689 688 688 688 687 687 687 686 687 687 688 690 692 693 694 694 694 694 694 694 694 695 696 697 698 699 701 703 704 706 707 708 710 712 713 716 718 720 722 725 727 730 732 736 738 741 743 745 747 750 752 754 756 757 759 761 763 765 767
724 722 720 719 717 716 714 713 712 710 709 707 706 704 702 701 698 696 694 692 692 690 690 689 689 689 689 688 688 687 687 687 686 686 686 687 687 688 690 692 694 695 695 694 693 693 694 694 695 696 697 698 699 701 703 704 706 707 708 709 711 713 715 717 719 722 724 726 728 731 734 736 739 741 744 746 748 750 752 754 755 757 759 762 764 766
723 722 721 719 718 717 715 714 712 711 709 707 706 704 703 702 700 698 696 694 692 691 689 689 688 688 688 688 687 687 687 686 686 686 686 687 687 688 690 692 695 696 695 694 693 692 692 693 694 695 696 697 699 701 703 704 705 706 707 709 711 712 715 717 719 721 723 725 727 730 732 735 737 739 742 744 746 748 750 752 754 756 757 760 762 765
724 722 721 719 718 717 716 714 713 711 710 708 706 704 703 702 701 700 698 696 694 692 690 688 687 687 687 687 687 687 687 687 687 687 687 687 687 688 690 692 695 695 695 694 693 692 692 692 693 694 695 697 699 701 703 704 704 705 706 708 710 712 714 717 719 721 722 724 727 729 731 733 736 738 740 742 745 747 749 751 752 754 756 758 761 763
724 723 722 720 718 717 716 715 713 712 710 709 708 707 705 703 702 701 699 697 695 693 690 688 687 685 685 685 685 686 686 686 687 687 687 687 687 688 690 692 693 694 694 693 693 693 692 692 693 693 695 697 699 701 702 703 703 704 706 708 710 712 714 716 718 720 722 724 726 728 730 732 734 737 739 741 743 746 748 750 751 753 755 757 759 762
724 723 722 720 719 717 717 715 714 713 712 711 710 709 707 705 703 702 699 697 695 693 691 688 686 684 684 684 684 685 686 686 687 687 687 687 687 688 689 690 691 692 692 692 693 693 693 693 693 693 694 696 697 699 701 702 702 703 705 707 710 712 714 715 717 720 722 723 725 727 729 731 733 736 738 740 742 744 747 748 750 752 753 756 758 760
724 723 722 721 719 718 717 716 715 714 713 712 711 710 708 706 705 703 701 698 696 693 691 688 686 684 683 683 684 685 686 686 687 687 687 687 687 687 688 689 689 690 690 691 692 693 693 693 693 693 693 695 697 698 700 702 702 703 705 707 709 712 713 715 717 718 721 722 724 726 728 730 732 734 737 739 741 743 746 747 748 750 752 754 756 758
724 724 722 721 720 719 718 717 716 715 713 712 711 710 709 707 706 704 702 700 697 695 692 690 687 685 683 683 683 684 685 686 686 687 686 686 685 686 687 687 687 688 688 690 692 693 693 693 692 692 693 694 696 698 700 701 702 703 705 707 709 711 713 715 716 718 719 722 723 725 727 729 731 733 736 738 740 742 744 746 747 748 750 752 755 757
725 724 723 722 720 719 718 717 717 715 714 713 712 711 709 708 707 705 704 702 700 697 694 692 690 687 684 682 682 683 683 684 685 685 685 685 684 685 685 685 686 686 687 689 691 693 693 693 692 692 693 694 696 698 699 701 702 703 705 707 708 711 712 714 716 717 719 720 722 724 726 728 730 732 735 737 739 741 742 744 746 747 749 751 753 755
724 724 723 722 721 720 719 718 717 715 714 713 712 711 709 708 707 706 705 703 702 699 697 695 693 691 688 685 684 684 685 685 685 684 684 684 683 684 684 684 684 684 686 688 691 692 693 693 693 693 693 694 696 697 699 700 702 703 705 706 708 710 712 713 715 717 718 719 721 723 725 727 729 731 734 736 738 740 741 743 744 746 747 749 752 753
724 723 723 722 721 720 719 718 717 715 714 713 712 711 709 708 707 706 705 704 703 701 699 697 695 693 691 689 687 686 686 686 685 685 684 683 683 683 683 684 683 684 686 688 690 692 693 694 694 694 694 695 696 697 698 700 702 703 705 707 708 710 711 712 714 715 717 718 720 722 724 726 728 730 732 735 737 739 740 742 743 745 746 748 750 752
724 723 723 722 721 720 719 718 717 716 715 714 712 711 709 707 707 706 705 704 703 702 700 698 696 694 692 690 688 687 687 687 686 685 684 683 683 683 683 683 683 684 686 688 690 692 693 694 694 694 694 695 697 697 699 701 702 704 706 707 708 709 711 712 713 714 716 717 719 721 722 725 727 729 731 733 736 737 739 741 742 744 745 747 749 751
724 723 722 722 721 720 719 717 717 716 715 714 712 711 709 707 706 705 705 704 703 702 700 698 696 695 693 692 689 687 687 687 687 686 685 683 682 682 683 683 683 684 686 688 690 692 693 694 694 694 694 695 697 698 700 702 703 705 706 707 708 709 710 711 712 713 715 716 718 720 722 724 726 728 730 732 735 737 738 740 741 742 744 746 747 749
724 722 722 721 721 720 719 717 716 715 714 714 712 711 709 708 707 706 705 704 703 702 700 698 697 695 694 692 689 687 687 687 687 687 686 684 683 682 683 682 683 684 686 688 691 692 693 694 694 694 694 695 697 698 700 702 704 705 706 707 708 709 710 711 712 712 714 715 717 719 721 722 725 727 729 731 734 736 737 739 740 742 743 745 747 748
723 722 721 721 720 719 718 717 716 715 714 713 712 711 709 708 707 706 705 703 702 701 699 697 696 694 692 691 688 686 686 686 686 686 686 685 683 682 683 682 682 684 686 689 691 692 693 694 694 693 693 695 697 699 701 702 704 705 706 707 708 709 709 710 711 712 713 714 716 718 720 722 724 726 728 731 733 735 737 738 740 741 742 744 745 747
723 722 721 720 719 718 717 716 715 714 713 713 712 710 709 708 707 706 705 703 702 700 699 697 694 692 691 689 687 685 685 685 686 686 686 685 684 683 683 683 683 684 686 688 690 692 692 693 693 692 693 695 697 699 700 702 703 704 705 706 707 708 709 710 711 712 713 714 716 717 719 721 723 725 727 730 732 734 736 737 739 740 742 743 744 746
722 721 720 719 718 717 716 715 715 714 713 712 711 710 708 707 706 705 704 703 702 700 699 697 695 692 690 688 687 686 686 686 686 686 687 686 685 685 685 684 684 685 686 687 689 690 691 691 691 692 692 694 696 698 699 701 702 703 705 706 707 708 709 710 711 712 713 714 716 717 719 721 723 726 727 730 732 733 735 737 738 739 741 742 744 746
721 720 719 718 717 716 715 714 714 713 712 712 711 709 707 707 706 705 704 703 702 701 699 697 695 693 691 689 687 687 686 686 687 687 687 686 686 686 686 685 685 685 686 687 688 688 688 689 690 690 691 692 695 697 699 700 701 703 705 706 707 708 709 710 711 712 713 715 716 718 720 722 724 726 728 730 732 733 735 736 737 739 740 742 745 747
720 719 718 717 716 715 714 713 712 712 712 711 710 709 707 706 706 705 704 703 702 701 700 698 696 694 692 690 689 687 687 686 686 686 686 686 686 686 686 686 685 686 687 687 687 687 687 687 688 689 690 692 693 696 698 700 701 703 705 706 707 708 709 710 711 712 714 715 716 718 720 722 724 726 727 730 732 733 734 736 737 739 740 743 746 748
719 718 717 716 715 714 713 712 712 711 711 710 709 708 707 706 706 705 704 704 703 702 701 699 697 696 694 692 690 688 687 687 687 686 686 686 686 686 686 686 687 687 688 688 687 687 687 687 687 688 690 691 692 695 698 700 702 704 705 707 708 709 710 711 712 713 714 716 717 718 719 721 723 725 727 729 731 732 734 735 737 738 740 743 745 747
718 717 716 715 714 713 712 711 710 710 710 709 708 707 707 706 706 705 704 704 703 702 701 700 699 698 696 694 692 689 688 688 687 686 686 686 686 686 687 687 687 688 688 688 688 687 687 687 687 688 690 691 692 694 697 701 704 706 707 707 708 709 710 711 712 714 715 716 717 718 719 720 722 724 726 728 730 731 733 734 736 737 740 742 744 747
717 717 715 714 713 712 711 710 710 709 709 708 707 707 706 706 705 705 704 703 703 702 702 701 700 699 697 695 692 690 688 688 688 687 687 687 687 687 687 687 687 688 688 688 688 688 688 688 689 689 691 692 693 695 698 702 705 707 708 708 709 709 710 711 712 714 715 716 717 717 718 719 721 723 725 727 728 730 732 733 734 736 738 741 743 746
718 717 715 714 713 712 711 710 709 708 708 707 707 706 706 705 705 704 704 703 703 702 702 701 700 699 699 697 695 692 689 689 689 688 688 688 688 687 687 687 687 687 688 688 688 687 687 689 690 691 692 693 694 696 698 702 706 708 709 709 709 709 710 711 712 713 715 716 716 717 717 718 720 722 724 726 727 729 730 732 733 734 737 739 742 745
718 717 716 714 713 712 711 710 709 708 707 707 706 706 705 705 704 703 703 702 702 702 701 700 700 699 699 698 697 694 692 690 690 690 690 690 690 689 688 688 688 687 688 688 688 687 687 688 690 692 693 694 695 697 699 702 705 707 708 708 708 708 709 710 711 713 714 715 715 715 716 717 719 722 724 726 727 728 729 730 731 732 735 737 740 744
719 717 716 715 713 712 711 710 709 708 707 707 706 705 705 704 703 703 702 702 701 701 700 700 699 699 698 698 697 695 693 692 691 691 692 692 691 690 689 689 688 687 688 688 688 687 687 688 689 691 693 694 696 697 699 702 704 706 707 707 707 707 708 710 711 712 713 714 714 715 716 717 719 721 724 726 727 728 729 730 731 732 733 735 738 742
719 718 717 715 714 713 712 710 709 708 707 707 706 705 704 703 703 702 702 701 700 700 699 699 698 698 697 697 696 695 693 692 692 692 692 693 693 692 691 690 689 689 688 688 688 688 688 689 690 691 692 694 696 697 699 702 703 704 705 705 706 707 708 709 710 711 712 713 714 715 716 717 720 722 724 726 727 729 730 731 731 732 732 734 736 739
719 718 717 716 714 713 712 711 709 708 707 707 706 705 704 703 702 701 701 700 699 699 698 697 697 697 696 696 695 694 692 692 692 692 692 693 693 693 692 691 690 690 689 688 688 688 688 690 690 691 692 694 695 697 699 701 702 703 704 705 706 707 708 708 709 710 712 712 713 715 717 718 721 723 725 727 728 729 730 731 732 733 734 735 736 738
719 718 717 716 715 713 712 711 710 708 707 706 705 704 703 702 701 701 700 699 698 698 697 696 696 695 695 694 694 693 691 691 691 692 692 692 693 693 692 691 691 690 690 689 688 688 689 690 690 691 691 693 694 696 698 700 701 702 702 703 705 706 707 708 709 709 711 712 713 715 717 719 722 724 727 727 728 730 731 732 734 735 737 738 739 740
720 718 717 717 715 714 712 711 710 709 707 706 705 704 702 702 701 700 699 698 697 697 696 695 695 694 693 693 692 691 690 690 690 690 691 691 692 692 692 691 690 690 691 690 689 689 689 690 691 691 691 692 693 695 697 698 699 700 701 702 703 705 707 708 708 709 710 711 713 716 718 720 723 725 727 728 729 731 732 734 736 737 739 741 743 745
720 719 718 717 716 714 713 712 710 709 708 706 705 703 702 701 700 699 698 697 696 696 695 694 693 693 692 692 691 690 689 689 689 689 689 690 690 690 690 690 689 690 690 689 689 689 689 690 690 690 690 691 692 693 695 696 697 698 699 700 702 703 706 707 708 709 709 711 713 716 718 721 724 726 728 729 730 731 733 736 737 739 741 743 746 748
720 719 718 717 716 715 714 712 711 709 708 707 705 703 702 701 699 698 697 696 695 695 694 693 692 692 691 691 690 689 689 688 688 688 688 688 688 688 688 688 688 688 688 688 688 688 688 689 689 689 689 691 692 693 694 695 696 697 698 700 702 704 706 707 708 709 709 711 713 716 720 722 724 726 728 730 731 732 734 736 738 740 741 744 747 750
720 719 718 717 716 715 714 713 711 710 708 707 705 704 702 700 698 697 696 695 695 694 693 692 692 691 690 690 689 689 688 688 687 687 687 687 687 687 687 687 687 687 687 687 687 687 687 688 689 689 688 689 690 692 694 695 696 696 697 699 702 705 707 708 709 710 710 711 713 716 720 723 726 727 729 731 732 733 734 736 738 740 741 742 746 750
721 720 719 717 716 715 714 713 712 710 708 707 705 703 702 700 698 697 695 694 694 693 692 691 691 690 690 689 689 688 688 687 687 687 686 685 685 686 686 686 686 686 686 686 686 686 687 688 689 689 689 689 689 691 693 695 696 696 696 698 702 705 708 709 711 711 712 713 714 717 721 724 727 729 731 732 734 735 736 737 739 741 742 742 743 746
722 720 719 718 717 715 714 713 711 710 708 707 705 704 702 700 699 697 696 694 693 692 691 690 690 689 689 688 688 687 687 687 686 685 685 684 684 684 685 685 685 685 686 686 686 686 686 688 689 690 689 689 690 691 694 696 697 697 697 698 701 705 708 712 713 713 714 715 717 719 722 725 727 730 732 733 736 737 738 739 740 742 744 746 746 747
722 721 719 718 717 715 714 712 711 709 708 707 705 704 702 701 700 698 697 695 694 693 692 691 690 689 689 688 687 687 686 685 685 684 684 684 684 684 684 684 685 685 685 686 685 685 686 688 690 691 691 690 689 691 693 696 698 699 699 699 700 703 709 714 716 716 717 717 719 721 723 726 728 730 732 734 737 739 740 741 742 743 745 747 749 750
723 721 720 718 717 715 713 712 711 709 708 707 706 704 703 702 700 699 697 696 695 693 692 691 690 689 689 688 687 687 686 685 685 684 684 684 684 684 684 684 684 685 685 685 685 685 687 688 690 692 692 692 691 691 693 696 698 700 702 701 701 703 707 712 715 717 718 719 721 722 724 726 728 730 732 735 737 739 741 742 743 744 746 748 749 751
724 722 720 718 717 715 713 712 711 709 708 707 706 705 703 702 701 699 698 697 695 694 693 692 691 690 690 690 689 688 687 686 685 685 684 684 684 684 684 684 685 685 685 685 685 685 687 689 692 693 694 693 693 693 694 696 699 701 702 703 704 706 708 711 714 716 718 720 722 723 725 726 728 730 733 736 739 741 742 742 744 745 747 748 749 751
724 722 720 718 717 715 714 712 711 710 708 707 706 705 703 702 701 700 699 697 696 695 694 693 692 692 692 692 691 690 689 688 687 686 686 685 685 684 685 685 685 685 685 685 685 686 688 690 693 695 696 696 696 695 696 697 699 701 703 704 705 707 710 713 716 717 718 720 722 724 726 727 728 731 734 737 740 742 744 745 746 747 749 750 751 752
725 723 721 720 718 716 714 713 711 710 708 707 706 705 704 702 702 700 699 698 697 696 695 694 693 693 693 693 693 692 692 691 690 689 688 687 687 687 686 686 686 685 685 685 686 687 689 691 694 696 698 698 698 698 698 698 699 701 703 704 705 708 711 715 718 719 720 722 723 725 727 728 729 731 735 738 741 744 746 748 749 750 751 752 753 754
726 724 723 721 719 717 715 713 712 711 709 708 707 706 704 703 702 701 700 699 698 697 696 695 695 695 695 695 695 695 694 693 692 691 690 690 689 689 689 688 687 687 687 687 687 688 690 692 695 697 699 700 700 700 700 700 701 702 703 704 706 708 712 715 718 721 723 724 726 727 728 728 729 731 734 738 742 746 748 751 752 753 754 755 756 757
727 726 724 722 720 719 717 715 713 712 711 709 708 706 705 704 703 702 701 700 699 698 698 697 697 697 696 696 696 696 695 695 694 693 692 692 692 692 691 691 690 689 688 688 689 690 692 694 696 699 701 702 702 702 702 702 702 703 704 705 706 708 712 716 719 722 724 726 728 729 730 731 730 731 733 737 743 747 750 753 755 757 757 758 758 759
729 727 726 724 722 720 719 717 715 714 712 711 709 708 707 705 704 703 702 702 701 700 700 699 699 698 698 698 698 697 697 696 695 695 694 694 693 693 693 693 692 691 690 690 691 692 694 697 699 702 703 705 705 705 705 704 704 705 706 707 708 709 712 716 720 722 724 727 729 731 732 734 734 733 734 737 742 747 751 754 757 759 760 761 761 762
730 728 727 725 723 722 720 719 717 716 714 713 711 710 708 707 706 705 704 703 702 702 702 701 701 700 700 700 699 699 698 698 697 697 696 695 695 694 694 694 694 693 692 692 693 695 697 700 703 706 707 707 708 708 708 707 706 707 708 710 711 711 713 716 720 723 725 727 730 732 733 735 736 736 736 737 742 747 752 756 759 761 762 762 763 764